Kuchera_Ratio
0.0 0.0 0.0 0.0 0.0 0.0 0.0 0.0 0.0 0.0 0.0 0.0 0.0 0.0 0.0 0.0 0.0 0.0 0.0 0.0 0.0 0.0 0.0 0.0 0.0 0.0 0.0 0.0 0.0 0.0 0.0 0.0 0.0 0.0 0.0 0.0 0.0 0.0 0.0 0.0 0.0 0.0 0.0 0.0 0.0
0.0 0.0 0.0 0.0 0.0 0.0 0.0 0.0 0.0 0.0 0.0 0.0 0.0 0.0 0.0 0.0 0.0 0.0 0.0 0.0 0.0 0.0 0.0 0.0 0.0 0.0 0.0 0.0 0.0 0.0 0.0 0.0 0.0 0.0 0.0 0.0 0.0 0.0 0.0 0.0 0.0 0.0 0.0 0.0 0.0
0.0 0.0 0.0 0.0 0.0 0.0 0.0 0.0 0.0 0.0 0.0 0.0 0.0 0.0 0.0 0.0 0.0 0.0 0.0 0.0 0.0 0.0 0.0 0.0 0.0 0.0 0.0 0.0 0.0 0.0 0.0 0.0 0.0 0.0 0.0 0.0 0.0 0.0 0.0 0.0 0.0 0.0 0.0 0.0 0.0
0.0 0.0 0.0 0.0 0.0 0.0 0.0 0.0 0.0 0.0 0.0 0.0 0.0 0.0 0.0 0.0 0.0 0.0 0.0 0.0 0.0 0.0 0.0 0.0 0.0 0.0 0.0 0.0 0.0 0.0 0.0 0.0 0.0 0.0 0.0 0.0 0.0 0.0 0.0 0.0 0.0 0.0 0.0 0.0 0.0
0.0 0.0 0.0 0.0 0.0 0.0 0.0 0.0 0.0 0.0 0.0 0.0 0.0 0.0 0.0 0.0 0.0 0.0 0.0 0.0 0.0 0.0 0.0 0.0 0.0 0.0 0.0 0.0 0.0 0.0 0.0 0.0 0.0 0.0 0.0 0.0 0.0 0.0 0.0 0.0 0.0 0.0 0.0 0.0 0.0
0.0 0.0 0.0 0.0 0.0 0.0 0.0 0.0 0.0 0.0 0.0 0.0 0.0 0.0 0.0 0.0 0.0 0.0 0.0 0.0 0.0 0.0 0.0 0.0 0.0 0.0 0.0 0.0 0.0 0.0 0.0 0.0 0.0 0.0 0.0 0.0 0.0 0.0 0.0 0.0 0.0 0.0 0.0 0.0 0.0
0.0 0.0 0.0 0.0 0.0 0.0 0.0 0.0 0.0 0.0 0.0 0.0 0.0 0.0 0.0 0.0 0.0 0.0 0.0 0.0 0.0 0.0 0.0 0.0 0.0 0.0 0.0 0.0 0.0 0.0 0.0 0.0 0.0 0.0 0.0 0.0 0.0 0.0 0.0 0.0 0.0 0.0 0.0 0.0 0.0
0.0 0.0 0.0 0.0 0.0 0.0 0.0 0.0 0.0 0.0 0.0 0.0 0.0 0.0 0.0 0.0 0.0 0.0 0.0 0.0 0.0 0.0 0.0 0.0 0.0 0.0 0.0 0.0 0.0 0.0 0.0 0.0 0.0 0.0 0.0 0.0 0.0 0.0 0.0 0.0 0.0 0.0 0.0 0.0 0.0
0.0 0.0 0.0 0.0 0.0 0.0 0.0 0.0 0.0 0.0 0.0 0.0 0.0 0.0 0.0 0.0 0.0 0.0 0.0 0.0 0.0 0.0 0.0 0.0 0.0 0.0 0.0 0.0 0.0 0.0 0.0 0.6 0.0 0.0 0.0 0.0 0.0 0.0 0.0 0.0 0.0 0.0 0.0 0.0 0.0
0.0 0.0 0.0 0.0 0.0 0.0 0.0 0.0 0.0 0.0 0.0 0.0 0.0 0.0 0.0 0.0 0.0 0.0 0.0 0.0 0.0 0.0 0.0 0.0 0.0 0.0 0.0 0.0 3.2 2.0 2.4 0.0 0.4 0.0 0.0 0.0 0.0 0.0 0.0 0.0 0.0 0.0 0.0 0.0 0.0
0.0 0.0 0.0 0.0 0.0 0.0 0.0 0.0 0.0 0.0 0.0 0.0 0.0 0.0 0.0 0.0 0.0 0.0 0.0 0.0 0.0 0.0 0.0 0.0 0.0 0.0 0.0 0.0 0.0 0.0 1.4 2.0 0.0 0.0 0.0 0.0 0.0 0.0 0.0 0.0 0.0 0.0 0.0 0.0 0.0
0.0 0.0 0.0 0.0 0.0 0.0 0.0 0.0 0.0 0.0 0.0 0.0 0.0 0.0 0.0 0.0 0.0 0.0 0.0 0.0 0.0 0.0 0.0 0.0 1.8 0.0 0.0 0.0 0.0 0.4 3.6 2.8 0.0 0.0 0.0 0.0 0.0 0.0 0.0 0.0 0.0 0.0 0.0 0.0 0.0
0.0 0.0 0.0 0.0 0.0 0.0 0.0 0.0 0.0 0.0 0.0 0.0 0.0 0.0 0.0 0.0 0.0 0.0 0.0 0.0 0.0 0.0 0.0 1.2 0.0 0.0 0.0 0.0 1.2 0.2 3.8 2.0 2.4 0.0 0.0 0.0 0.0 0.0 0.0 0.0 0.0 0.0 0.0 0.0 0.0
0.0 0.0 0.0 0.0 0.0 0.0 0.0 0.0 0.0 0.0 0.9 0.0 0.0 0.0 0.0 0.0 0.0 0.0 0.0 0.0 0.0 0.0 0.0 1.4 0.0 0.0 0.0 1.2 0.0 6.6 0.0 0.0 0.4 4.8 9.6 0.0 13.4 0.0 0.0 0.0 0.0 0.0 0.0 0.0 0.0
0.0 0.0 0.0 0.0 0.0 0.0 0.0 0.0 0.0 0.0 10.6 0.0 0.0 0.0 0.0 0.0 0.0 0.0 0.0 0.0 0.0 0.0 0.0 0.4 0.0 1.4 5.2 1.2 0.0 1.6 0.0 0.0 0.0 4.4 7.8 2.8 11.2 0.0 0.0 0.0 0.0 0.0 0.0 0.0 0.0
0.0 0.0 0.0 0.0 0.0 0.0 0.0 0.0 0.0 5.4 11.6 0.0 0.0 0.0 0.0 0.0 0.0 0.0 0.0 0.0 0.0 0.0 0.0 0.0 0.0 0.0 0.0 0.0 0.0 0.0 0.0 0.0 0.4 7.8 14.9 6.2 5.6 0.0 0.0 4.6 1.2 0.0 0.0 0.0 0.0
0.0 0.0 0.0 0.0 0.0 0.0 0.0 0.0 6.6 10.0 0.0 2.2 0.0 0.0 0.0 0.0 0.0 0.0 0.0 0.0 1.6 6.2 6.6 1.2 0.0 0.0 0.0 0.0 0.0 0.0 2.4 10.6 12.3 13.6 10.8 0.0 3.0 0.0 0.8 0.6 1.8 0.0 1.0 0.0 0.0
0.0 0.0 0.0 0.0 0.0 0.0 0.0 1.6 11.4 4.0 2.2 0.0 0.0 0.0 2.4 0.0 0.0 0.0 0.0 2.6 0.0 0.8 7.2 11.0 8.4 0.0 0.0 0.0 0.0 0.0 5.4 10.8 16.3 13.5 9.8 0.0 8.2 3.2 0.0 0.2 2.2 0.0 2.8 0.0 0.0
0.0 0.0 0.0 0.0 0.0 0.0 0.0 9.1 5.4 2.4 0.0 0.0 0.0 4.8 4.4 1.2 2.6 3.0 6.2 3.2 0.0 0.0 8.4 10.6 10.2 0.0 0.0 0.0 0.0 4.0 8.2 0.0 11.0 5.8 12.5 4.2 2.2 0.0 0.0 2.2 4.2 4.8 4.0 5.2 1.2
0.0 0.0 0.0 0.0 0.0 0.0 4.4 4.8 1.6 0.0 0.0 0.0 5.8 2.4 8.4 5.2 5.0 9.2 6.0 0.2 1.2 0.0 0.0 3.2 12.7 0.0 0.0 0.0 0.0 0.0 0.0 8.2 7.0 15.4 15.2 6.8 10.6 12.9 9.8 9.0 6.4 7.6 7.2 6.8 3.4
0.0 0.2 0.0 0.0 0.0 0.0 10.6 4.8 0.0 0.0 0.0 0.0 2.4 4.6 4.0 5.8 5.0 10.6 6.8 1.0 0.0 0.0 0.0 1.2 6.0 4.0 0.0 1.6 2.4 0.4 2.4 2.8 5.4 7.6 13.2 13.5 13.9 8.6 9.8 8.0 9.0 7.4 8.0 7.0 6.4
0.0 7.6 0.0 0.0 4.4 6.2 7.6 0.2 0.0 0.0 0.0 0.0 0.0 0.0 3.0 3.8 5.6 5.8 5.6 1.2 0.0 0.0 3.8 0.0 4.6 11.2 5.2 0.0 0.0 0.0 1.2 3.4 11.4 10.0 6.2 8.8 14.5 5.4 6.6 6.6 7.2 7.6 7.8 7.8 6.6
2.2 3.2 0.0 0.0 10.0 8.4 1.4 0.0 0.0 0.0 0.0 0.0 0.2 0.0 0.0 3.4 8.0 3.8 2.6 0.0 0.0 0.0 1.6 0.0 6.8 14.1 8.2 0.2 0.0 3.8 1.8 4.6 4.2 6.0 10.4 12.7 13.2 6.6 6.6 7.6 6.2 8.6 8.0 7.2 7.2
2.2 9.6 2.0 0.0 1.0 3.0 5.8 2.8 2.2 0.0 0.0 0.0 0.0 0.0 1.4 4.0 1.8 5.6 4.2 0.0 0.0 0.0 0.0 0.0 4.6 10.6 13.9 11.4 7.4 9.4 5.4 5.2 6.6 9.2 9.8 12.6 13.2 11.2 10.4 10.4 9.4 8.8 8.0 8.4 8.6
3.4 7.7 1.2 10.6 7.6 3.4 0.4 0.0 2.2 3.2 0.0 0.0 1.0 0.8 2.4 8.2 6.8 7.8 4.2 2.0 0.0 0.0 0.0 0.0 9.6 6.6 4.4 2.6 6.2 9.0 7.6 9.0 11.8 7.8 10.6 13.2 13.3 12.0 10.6 10.6 10.0 9.4 9.2 9.6 10.0
2.8 5.1 1.8 2.6 1.4 2.4 0.2 2.2 2.4 1.0 0.0 3.0 3.0 2.4 2.2 5.4 3.4 7.4 3.2 3.4 3.2 0.0 1.2 1.6 8.8 6.6 7.2 1.8 5.6 10.6 8.0 5.8 10.4 9.0 7.6 10.4 12.1 7.0 7.4 6.4 8.4 9.8 10.4 11.4 11.0
0.0 0.0 0.0 4.2 4.0 3.8 4.0 2.0 1.0 0.0 0.0 0.0 0.0 2.4 4.6 2.0 0.0 0.0 0.0 0.0 0.0 1.2 5.0 5.8 7.2 8.6 11.8 3.2 7.2 13.2 12.3 10.2 9.8 8.8 9.4 12.9 10.2 7.6 9.2 10.2 11.4 10.4 11.0 12.0 11.6